Regional Weather Roundup
Issued by NWS State College, PA

Home | Current Version | Previous Version | Graphics & Text | Print | Product List | Glossary Off
Versions: 1 2 3 4 5 6 7 8 9 10 11 12 13 14 15 16 17 18 19 20 21 22 23 24 25 26 27 28 29 30 31 32 33 34 35 36 37 38 39 40 41 42 43 44 45 46 47 48 49 50

000
ASUS41 KCTP 291010
RWRCTP

REGIONAL WEATHER ROUNDUP
NATIONAL WEATHER SERVICE STATE COLLEGE PA
600 AM EDT MON AUG 29 2016

Note: "fair" indicates few or no clouds below 12,000 feet with no
significant weather and/or obstructions to visibility.

* = STATION THAT DOES NOT REPORT PRECIPITATION /E.G. RAIN...SNOW...ETC/
    THUNDER OR FOG.

PAZ002>004-007>009-013>016-020>023-029>032-291100-
WESTERN PENNSYLVANIA

CITY           SKY/WX    TMP DP  RH WIND       PRES   REMARKS
ERIE           MOCLDY    73  61  65 NE12      30.23R
MEADVILLE      CLEAR     67  65  93 NE7       30.24R
FRANKLIN*        N/A     66  64  94 N5        30.23F VSB 1
NEW CASTLE     FAIR      66  66 100 NW5       30.22S FOG
BEAVER COUNTY  NOT AVBL
BUTLER*        NOT AVBL
PITTSBURGH INT PTCLDY    68  64  87 CALM      30.20R
PITTSBURGH     FOG       67  64  90 CALM      30.20R VSB<1/4
INDIANA*       FOG       64  64 100 CALM      30.24R VSB 1/2
LATROBE        CLOUDY    66  66 100 CALM      30.22R
WASHINGTON CO* CLOUDY    64  61  88 CALM      30.21R VSB<1/4
$$

PAZ004>006-010>012-017>019-024>028-033>037-041-042-045-046-049>053-291100-
CENTRAL PENNSYLVANIA

CITY           SKY/WX    TMP DP  RH WIND       PRES   REMARKS
BRADFORD       CLOUDY    68  67  96 N5        30.24S
DUBOIS         CLOUDY    66  64  93 N6        30.22S FOG
CLEARFIELD     NOT AVBL
JOHNSTOWN      CLEAR     63  63 100 CALM      30.24S
ALTOONA        FOG       63  63 100 CALM      30.23R VSB 1/4
STATE COLLEGE  MOCLDY    64  64 100 CALM      30.21S
WILLIAMSPORT   PTCLDY    70  66  87 W9        30.15R
SELINSGROVE    PTCLDY    66  66 100 CALM      30.17R
FT INDIANTOWN  PTCLDY    67  66  98 NW1       30.16S
CAPITAL CITY   CLEAR     70  64  81 SW5       30.16R
HARRISBURG     PTCLDY    71  68  90 CALM      30.15R
YORK           CLEAR     64  63  96 CALM      30.15F
$$

PAZ038>040-043-044-047-048-054-055-060>062-067>071-291100-
EASTERN PENNSYLVANIA

CITY           SKY/WX    TMP DP  RH WIND       PRES   REMARKS
SCRANTON       CLOUDY    74  66  76 SW6       30.16R
MOUNT POCONO   CLOUDY    66  32  28 NW6       30.19S
ALLENTOWN      CLOUDY    71  65  81 SW6       30.14R
QUAKERTOWN*    CLOUDY    68  64  88 CALM      30.16S
READING        PTCLDY    69  63  81 CALM      30.14S
LANCASTER      PTCLDY    68  66  93 CALM      30.16R
COATESVILLE    SUNNY     68  64  88 W3        30.18R
POTTSTOWN      MOCLDY    68  63  84 CALM      30.17R
BLUE BELL      PTCLDY    64  64 100 CALM      30.14R
DOYLESTOWN     MOCLDY    71  67  87 W3        30.14R
WILLOW GROVE   NOT AVBL
NORTH PHILA    CLEAR     72  69  90 NW5       30.15R
PHILADELPHIA   PTCLDY    73  69  87 VRB5      30.14R
$$




USA.gov is the U.S. government's official web portal to all federal, state and local government web resources and services.